sat.trackr.live / text

‹ back to catalog

ONEWEB-0141

NORAD 47287 · 2020-100AF

PAYLOAD ACTIVE UNKNOWN

§ Identity

Operator
Country
UK
Launch date
2020-12-18
Launch site
VOSTO
Launch vehicle
Mass (kg)
RCS (m²)

Purposes: comms

External: N2YO · Heavens-Above · Gunter

§ Orbital elements

Epoch: 2026-09-19T22:19:56.500320Z

Period
109.72 min
Inclination
87.8985°
Eccentricity
0.0001918
Mean motion
13.12443629 rev/d
Perigee alt
1,212.3 km
Apogee alt
1,215.2 km
Semi-major
7,591.9 km
B*
-5.6656e-4
RAAN
331.8420°
Arg perigee
107.7797°
Mean anomaly
252.3540°
Rev number
27,710

§ Raw data

ONEWEB-01411 47287U 20100AF  26262.93051505 -.00000191  00000+0 -56656-3 0  99902 47287  87.8985 331.8420 0001918 107.7797 252.3540 13.12443629277106

JSON: /api/v1/satellites/47287 · /tle

For live sub-satellite position, see the globe view (requires WebGL).

§ Visibility from observer

Set your observer location to see the next 7 days of passes ≥ 10°. The values pass through the URL so the page stays shareable.

No JS? Fill the form by hand. The geolocation button needs JavaScript.